When you browse on this site, cookies collect data to enhance your experience and personalize the content and advertising you see.
Visit our Privacy Policy to learn more. By continuing to use the site, you agree to this use of cookies and data.
  • In Sweden
  • List of Countries
  • For 7 days
  • Water Temperature
  • Weather Map
  • Weather Widgets
  • user-avatar
    Login

    Hourly Weather Escaldes-Engordany

    Today, 18 September, Wednesday

    Time Temperature Precipitation Wind Pressure Humidity
    00:00 +14°C° 0 mm 1 mps 639 mmHg 84%
    01:00 +14°C° 0.3 mm 1 mps 639 mmHg 84%
    02:00 +14°C° 0.3 mm 1 mps 639 mmHg 83%
    03:00 +14°C° 0.3 mm 1 mps 638 mmHg 82%
    04:00 +14°C° 0 mm 1 mps 639 mmHg 82%
    05:00 +14°C° 0 mm 1 mps 639 mmHg 81%
    06:00 +14°C° 0 mm 1 mps 639 mmHg 80%
    07:00 +16°C° 0.4 mm 1 mps 640 mmHg 76%
    08:00 +18°C° 0.4 mm 1 mps 641 mmHg 72%
    09:00 +20°C° 0.4 mm 1 mps 641 mmHg 68%
    10:00 +21°C° 1.6 mm 1 mps 641 mmHg 68%
    11:00 +21°C° 1.6 mm 1 mps 641 mmHg 68%
    12:00 +21°C° 1.6 mm 1 mps 641 mmHg 67%
    13:00 +20°C° 1.5 mm 1 mps 641 mmHg 69%
    14:00 +20°C° 1.5 mm 1 mps 641 mmHg 70%
    15:00 +20°C° 1.5 mm 1 mps 640 mmHg 71%
    16:00 +18°C° 1.1 mm 1 mps 640 mmHg 77%
    17:00 +15°C° 1.1 mm 1 mps 639 mmHg 82%
    18:00 +14°C° 1.1 mm 1 mps 639 mmHg 87%
    19:00 +13°C° 0.1 mm 1 mps 639 mmHg 85%
    20:00 +13°C° 0.1 mm 1 mps 639 mmHg 82%
    21:00 +13°C° 0.1 mm 1 mps 639 mmHg 80%
    22:00 +12°C° 0.1 mm 1 mps 640 mmHg 80%
    23:00 +12°C° 0.1 mm 1 mps 640 mmHg 79%

    Tomorrow, 19 September, Thursday

    Time Temperature Precipitation Wind Pressure Humidity
    00:00 +12°C° 0.1 mm 1 mps 640 mmHg 79%
    01:00 +12°C° 0 mm 1 mps 639 mmHg 78%
    02:00 +12°C° 0 mm 1 mps 639 mmHg 78%
    03:00 +12°C° 0 mm 1 mps 639 mmHg 77%
    04:00 +12°C° 0 mm 1 mps 639 mmHg 78%
    05:00 +12°C° 0 mm 1 mps 639 mmHg 78%
    06:00 +12°C° 0 mm 1 mps 639 mmHg 79%
    07:00 +14°C° 0 mm 1 mps 640 mmHg 73%
    08:00 +16°C° 0 mm 1 mps 642 mmHg 67%
    09:00 +20°C° 0 mm 1 mps 643 mmHg 61%
    10:00 +20°C° 0.4 mm 1 mps 643 mmHg 60%
    11:00 +21°C° 0.4 mm 1 mps 643 mmHg 60%
    12:00 +20°C° 0.4 mm 2 mps 643 mmHg 59%
    13:00 +21°C° 1 mm 1 mps 642 mmHg 63%
    14:00 +20°C° 1 mm 1 mps 642 mmHg 68%
    15:00 +19°C° 1 mm 1 mps 641 mmHg 73%
    16:00 +18°C° 2 mm 1 mps 641 mmHg 79%
    17:00 +15°C° 2 mm 1 mps 640 mmHg 85%
    18:00 +14°C° 2 mm 1 mps 640 mmHg 92%
    19:00 +13°C° 0.5 mm 1 mps 640 mmHg 90%
    20:00 +13°C° 0.5 mm 1 mps 640 mmHg 89%
    21:00 +12°C° 0.5 mm 1 mps 641 mmHg 88%
    22:00 +12°C° 0 mm 1 mps 641 mmHg 87%
    23:00 +12°C° 0 mm 1 mps 640 mmHg 87%

    Day after tomorrow, 20 September, Friday

    Time Temperature Precipitation Wind Pressure Humidity
    00:00 +12°C° 0 mm 1 mps 640 mmHg 87%
    01:00 +12°C° 0 mm 1 mps 640 mmHg 88%
    02:00 +12°C° 0 mm 1 mps 640 mmHg 88%
    03:00 +12°C° 0 mm 1 mps 640 mmHg 89%
    04:00 +12°C° 0 mm 1 mps 640 mmHg 89%
    05:00 +12°C° 0 mm 1 mps 640 mmHg 89%
    06:00 +12°C° 0 mm 1 mps 639 mmHg 89%
    07:00 +14°C° 0 mm 1 mps 640 mmHg 82%
    08:00 +16°C° 0 mm 2 mps 641 mmHg 76%
    09:00 +18°C° 0 mm 2 mps 642 mmHg 70%
    10:00 +19°C° 0.2 mm 2 mps 642 mmHg 66%
    11:00 +19°C° 0.2 mm 2 mps 642 mmHg 63%
    12:00 +20°C° 0.2 mm 2 mps 642 mmHg 59%
    13:00 +19°C° 0.8 mm 2 mps 642 mmHg 64%
    14:00 +19°C° 0.8 mm 2 mps 641 mmHg 68%
    15:00 +18°C° 0.8 mm 2 mps 641 mmHg 73%
    16:00 +16°C° 0.2 mm 2 mps 640 mmHg 79%
    17:00 +15°C° 0.2 mm 2 mps 640 mmHg 85%
    18:00 +13°C° 0.2 mm 1 mps 639 mmHg 91%
    19:00 +13°C° 0.1 mm 1 mps 640 mmHg 92%
    20:00 +13°C° 0.1 mm 2 mps 640 mmHg 93%
    21:00 +13°C° 0.1 mm 2 mps 640 mmHg 93%
    22:00 +13°C° 0 mm 2 mps 639 mmHg 91%
    23:00 +12°C° 0 mm 2 mps 639 mmHg 89%

    21 September, Saturday

    Time Temperature Precipitation Wind Pressure Humidity
    00:00 +12°C° 0 mm 1 mps 638 mmHg 87%
    01:00 +12°C° 0.1 mm 2 mps 638 mmHg 87%
    02:00 +12°C° 0.1 mm 2 mps 638 mmHg 87%
    03:00 +12°C° 0.1 mm 2 mps 638 mmHg 86%
    04:00 +12°C° 0.2 mm 2 mps 638 mmHg 87%
    05:00 +12°C° 0.2 mm 2 mps 637 mmHg 87%
    06:00 +12°C° 0.2 mm 1 mps 637 mmHg 87%
    07:00 +12°C° 2 mm 1 mps 637 mmHg 89%
    08:00 +13°C° 2 mm 2 mps 637 mmHg 90%
    09:00 +13°C° 2 mm 2 mps 638 mmHg 91%
    10:00 +13°C° 1.4 mm 2 mps 637 mmHg 93%
    11:00 +13°C° 1.4 mm 2 mps 637 mmHg 94%
    12:00 +13°C° 1.4 mm 2 mps 637 mmHg 95%
    13:00 +14°C° 1.2 mm 2 mps 637 mmHg 94%
    14:00 +14°C° 1.2 mm 2 mps 636 mmHg 93%
    15:00 +14°C° 1.2 mm 2 mps 636 mmHg 93%
    16:00 +14°C° 0.2 mm 2 mps 636 mmHg 93%
    17:00 +13°C° 0.2 mm 2 mps 636 mmHg 94%
    18:00 +13°C° 0.2 mm 1 mps 636 mmHg 94%
    19:00 +13°C° 0 mm 1 mps 636 mmHg 93%
    20:00 +12°C° 0 mm 1 mps 636 mmHg 93%
    21:00 +12°C° 0 mm 1 mps 636 mmHg 92%
    22:00 +12°C° 0 mm 1 mps 636 mmHg 90%
    23:00 +12°C° 0 mm 1 mps 636 mmHg 89%

    22 September, Sunday

    Time Temperature Precipitation Wind Pressure Humidity
    00:00 +12°C° 0 mm 1 mps 636 mmHg 87%
    01:00 +12°C° 0.1 mm 1 mps 636 mmHg 87%
    02:00 +12°C° 0.1 mm 2 mps 636 mmHg 88%
    03:00 +13°C° 0.1 mm 2 mps 636 mmHg 89%
    04:00 +12°C° 0.1 mm 1 mps 636 mmHg 89%
    05:00 +12°C° 0.1 mm 1 mps 636 mmHg 90%
    06:00 +12°C° 0.1 mm 1 mps 636 mmHg 91%
    07:00 +14°C° 0 mm 1 mps 637 mmHg 85%
    08:00 +16°C° 0 mm 1 mps 638 mmHg 79%
    09:00 +18°C° 0 mm 1 mps 639 mmHg 73%
    10:00 +19°C° 0.2 mm 1 mps 639 mmHg 72%
    11:00 +18°C° 0.2 mm 2 mps 639 mmHg 70%
    12:00 +19°C° 0.2 mm 2 mps 639 mmHg 69%
    13:00 +19°C° 0.5 mm 2 mps 639 mmHg 72%
    14:00 +18°C° 0.5 mm 2 mps 639 mmHg 75%
    15:00 +18°C° 0.5 mm 2 mps 638 mmHg 77%
    16:00 +16°C° 0.2 mm 1 mps 638 mmHg 83%
    17:00 +15°C° 0.2 mm 1 mps 638 mmHg 88%
    18:00 +13°C° 0.2 mm 1 mps 638 mmHg 93%
    19:00 +13°C° 0.2 mm 1 mps 639 mmHg 94%
    20:00 +12°C° 0.2 mm 1 mps 639 mmHg 95%
    21:00 +12°C° 0.2 mm 1 mps 640 mmHg 95%
    22:00 +12°C° 0.1 mm 1 mps 640 mmHg 95%
    23:00 +11°C° 0.1 mm 1 mps 640 mmHg 95%

    23 September, Monday

    Time Temperature Precipitation Wind Pressure Humidity
    00:00 +11°C° 0.1 mm 1 mps 640 mmHg 95%
    01:00 +11°C° 0 mm 1 mps 640 mmHg 95%
    02:00 +10°C° 0 mm 1 mps 640 mmHg 95%
    03:00 +10°C° 0 mm 1 mps 640 mmHg 95%
    04:00 +10°C° 0 mm 1 mps 640 mmHg 95%
    05:00 +10°C° 0 mm 1 mps 640 mmHg 95%
    06:00 +9°C° 0 mm 1 mps 640 mmHg 94%
    07:00 +11°C° 0 mm 1 mps 641 mmHg 86%
    08:00 +13°C° 0 mm 1 mps 642 mmHg 77%
    09:00 +14°C° 0 mm 1 mps 643 mmHg 68%
    10:00 +15°C° 0 mm 1 mps 643 mmHg 61%
    11:00 +16°C° 0 mm 2 mps 643 mmHg 53%
    12:00 +17°C° 0 mm 2 mps 644 mmHg 46%
    13:00 +17°C° 0 mm 2 mps 643 mmHg 47%
    14:00 +17°C° 0 mm 2 mps 643 mmHg 48%
    15:00 +17°C° 0 mm 2 mps 643 mmHg 49%
    16:00 +15°C° 0 mm 1 mps 642 mmHg 58%
    17:00 +13°C° 0 mm 1 mps 642 mmHg 67%
    18:00 +10°C° 0 mm 0 mps 641 mmHg 76%
    19:00 +11°C° 0 mm 1 mps 641 mmHg 77%
    20:00 +10°C° 0 mm 1 mps 641 mmHg 78%
    21:00 +10°C° 0 mm 1 mps 642 mmHg 79%
    22:00 +10°C° 0 mm 1 mps 642 mmHg 77%
    23:00 +10°C° 0 mm 1 mps 641 mmHg 75%
    Show more